FW1609 Weather Reports


time (UTC)temp
C
wind
direction
speed
KPH
gust
KPH
rain 1hr
cm
rain 24hr
cm
rain mn
cm
humidity
%
barometer
mb
20260504174512 8 289 0.0 0.0 0.00 0.10 0.05 87 1014.7
20260504173014 9 289 0.0 0.0 0.00 0.10 0.05 86 1014.6
20260504171506 10 289 0.0 1.6 0.00 0.10 0.05 85 1014.8
20260504081518 16 337 4.8 12.9 0.03 0.08 0.03 81 1013.7
20260504060104 18 326 3.2 17.7 0.00 0.05 0.05 75 1012.8
20260504044516 18 328 16.1 27.4 0.00 0.05 0.05 73 1012.6
20260504043015 18 325 9.7 25.7 0.00 0.05 0.05 73 1012.8
20260504041510 18 310 20.9 29.0 0.00 0.05 0.05 73 1012.8
20260504040010 19 323 20.9 32.2 0.00 0.05 0.05 71 1012.8
20260504034508 18 302 19.3 27.4 0.00 0.05 0.05 72 1012.9
20260504033007 18 316 20.9 33.8 0.00 0.05 0.05 72 1013.0
20260504031500 18 335 17.7 24.1 0.00 0.05 0.05 72 1013.2
20260504030114 18 310 12.9 20.9 0.00 0.05 0.05 73 1013.4
20260504024556 18 316 9.7 24.1 0.00 0.05 0.05 73 1013.5
20260504023055 18 351 14.5 24.1 0.00 0.05 0.05 75 1013.6
20260504021548 17 332 16.1 22.5 0.03 0.05 0.05 77 1013.9
20260504020047 17 333 16.1 22.5 0.03 0.05 0.05 80 1014.2
20260504014546 16 318 17.7 22.5 0.03 0.05 0.05 83 1014.6
20260504013045 16 15 6.4 16.1 0.03 0.05 0.05 86 1014.7
20260504011539 15 316 11.3 17.7 0.00 0.05 0.05 89 1015.0
20260504010040 15 300 1.6 6.4 0.00 0.05 0.05 89 1015.2
20260504004535 15 297 0.0 6.4 0.03 0.05 0.05 90 1015.5
20260504003040 14 326 0.0 4.8 0.03 0.05 0.05 90 1015.8
20260504001631 14 295 0.0 0.0 0.03 0.05 0.05 89 1016.0
20260504000137 14 295 0.0 0.0 0.03 0.05 0.05 89 1016.2
20260503234553 13 295 0.0 0.0 0.00 0.03 0.03 88 1016.2
20260503233052 13 295 0.0 1.6 0.03 0.03 0.03 87 1016.2
20260503231551 14 295 3.2 11.3 0.03 0.03 0.03 86 1016.3
20260503230054 14 306 3.2 14.5 0.03 0.03 0.03 84 1016.3
20260503224526 15 295 4.8 16.1 0.03 0.03 0.03 81 1016.3
20260503223018 15 291 9.7 19.3 0.00 0.00 0.00 80 1016.1
20260503221512 13 251 0.0 1.6 0.00 0.00 0.00 78 1016.0
20260503220018 13 127 0.0 0.0 0.00 0.00 0.00 78 1015.7
20260503214506 13 127 0.0 0.0 0.00 0.00 0.00 79 1015.6
20260503213006 12 113 0.0 0.0 0.00 0.00 0.00 80 1015.4
20260503211606 12 113 0.0 0.0 0.00 0.00 0.00 80 1015.1
20260503210100 12 113 0.0 0.0 0.00 0.00 0.00 80 1015.0
20260503204558 12 113 0.0 0.0 0.00 0.00 0.00 81 1014.9
20260503203108 11 113 0.0 0.0 0.00 0.00 0.00 81 1014.6
20260503201600 11 345 0.0 0.0 0.00 0.00 0.00 81 1014.7
20260503200052 11 345 0.0 0.0 0.00 0.00 0.00 81 1014.6
20260503194554 11 345 0.0 0.0 0.00 0.00 0.00 81 1014.6
20260503193050 11 345 0.0 0.0 0.00 0.00 0.00 82 1014.5
20260503191550 11 345 0.0 0.0 0.00 0.00 0.00 82 1014.3
20260503190044 11 345 0.0 0.0 0.00 0.00 0.00 82 1014.3
20260503184602 11 345 0.0 0.0 0.00 0.00 0.00 81 1014.3
20260503183048 11 345 0.0 0.0 0.00 0.00 0.00 82 1014.2
20260503181543 11 345 0.0 0.0 0.00 0.00 0.00 81 1014.3
20260503180039 11 345 0.0 0.0 0.00 0.00 0.00 81 1014.2